Lexington Weather

Lexington, Massachusetts, USA

39°F
1/28/2023 8:28pm 
  • Lexington Conditions: Clear
  • Temperature: 39.0°F / 3.9°CColder 1.8°F than last hour.
  • Dew Point: 26.8°FIncreased 0.9°Fsince last hour.
  • Relative Humidity: 61%Increased 6.0% since last hour.
  • Wind: Calm, 10-min avg: Calm, gust: None
  • Barometer: 30.23 inRising 0.02  inHg/hr Rising Slowly
  • Visibility: 10 miles
  • Rain Today: 0.00 in
  •   

Regional Weather Roundup
for Boston, MA

        
000
ASUS41 KBOX 280510
RWRBOX

REGIONAL WEATHER ROUNDUP
NATIONAL WEATHER SERVICE BOSTON/NORTON MA
1200 AM EST SAT JAN 28 2023

NOTE:  "FAIR" INDICATES FEW OR NO CLOUDS BELOW 12,000 FEET WITH NO 
SIGNIFICANT WEATHER AND/OR OBSTRUCTIONS TO VISIBILITY.

MAZALL-280600-
EASTERN MASSACHUSETTS
  
CITY           SKY/WX    TMP DP  RH WIND       PRES   REMARKS
BOSTON         PTCLDY    31  25  78 S6        30.17F WCI  25          
BEVERLY        CLEAR     29  26  89 S3        30.15F                  
LAWRENCE       CLEAR     29  23  78 CALM      30.16F                  
BEDFORD        CLEAR     27  22  81 CALM      30.14F                  
NORWOOD        CLEAR     29  25  85 CALM      30.17F                  
MARSHFIELD     PTCLDY    27  25  93 CALM      30.18S                  
PLYMOUTH       PTCLDY    26  22  84 CALM      30.17F                  
TAUNTON          N/A    N/A N/A N/A MISG      30.17F                  
NEW BEDFORD    CLEAR     26  26 100 CALM      30.17F                  
$$

MAZALL-280600-
CAPE COD AND THE ISLANDS
  
CITY           SKY/WX    TMP DP  RH WIND       PRES   REMARKS
FALMOUTH       CLEAR     25  23  93 CALM      30.20S                  
HYANNIS        MOCLDY    24  23  96 CALM      30.18S                  
CHATHAM        PTCLDY    31  26  82 CALM      30.20S                  
PROVINCETOWN   PTCLDY    25  23  92 S6        30.19F WCI  18          
NANTUCKET      CLOUDY    33  28  81 CALM      30.20S                  
MARTHAS VNYRD  CLOUDY    27  24  89 CALM      30.18F                  
$$
 
MAZALL-280600-
CENTRAL AND WESTERN MASSACHUSETTS
  
CITY           SKY/WX    TMP DP  RH WIND       PRES   REMARKS
WORCESTER      CLEAR     28  24  85 SW8       30.10S WCI  20          
FITCHBURG      CLEAR     25  20  81 CALM      30.14F                  
ORANGE         FOG       23  20  88 CALM      30.12F VSB 1/2          
SPRINGFIELD    CLEAR     29  27  92 S6        30.12S WCI  23          
WESTFIELD      CLEAR     28  23  81 CALM      30.13F                  
NORTH ADAMS    CLEAR     26  21  81 N6        30.10S WCI  19          
PITTSFIELD     CLEAR     28  20  71 S5        30.06F WCI  23          
$$
 
RIZALL-280600-
RHODE ISLAND
  
CITY           SKY/WX    TMP DP  RH WIND       PRES   REMARKS
PROVIDENCE     PTCLDY    28  24  85 CALM      30.17F                  
NEWPORT        CLEAR     35  27  72 CALM      30.17F                  
BLOCK ISLAND   CLEAR     36  23  59 W12       30.19S WCI  28          
SMITHFIELD     CLEAR     30  27  88 CALM      30.15F                  
WESTERLY       CLEAR     29  24  82 CALM      30.17F                  
$$
 
CTZALL-280600-
CONNECTICUT
  
CITY           SKY/WX    TMP DP  RH WIND       PRES   REMARKS
BRADLEY INTL   PTCLDY    33  26  75 S9        30.15S WCI  25          
HARTFORD       PTCLDY    32  27  81 S5        30.17S WCI  27          
BRIDGEPORT     CLEAR     33  28  81 CALM      30.17F                  
DANBURY        PTCLDY    28  20  71 CALM      30.15F                  
GROTON         CLEAR     29  25  85 CALM      30.17F                  
NEW HAVEN      CLEAR     37  31  78 SW3       30.17F                  
CHESTER        FAIR      32  32 100 SW3       30.16S                  
MERIDEN        PTCLDY    27  24  89 CALM      30.17F FOG              
WILLIMANTIC    CLEAR     25  23  92 CALM      30.17S                  
OXFORD         PTCLDY    27  25  92 SW5       30.14F WCI  22          
$$

MEZ002-015-021-024-NHZ003-005-008-011-012-014-VTZ005-008-280600-
NORTHERN NEW ENGLAND
  
CITY           SKY/WX    TMP DP  RH WIND       PRES   REMARKS
PORTLAND ME    PTCLDY    21  19  92 CALM      30.16S                  
BANGOR ME      CLEAR     14  11  87 CALM      30.16F                  
CONCORD NH     PTCLDY    24  18  77 MISG      30.12F                  
MANCHESTER NH  MOCLDY    27  21  78 CALM      30.12F                  
NASHUA NH      PTCLDY    23  23 100 CALM      30.14F                  
PORTSMOUTH NH  MOCLDY    27  20  73 SE3       30.15F                  
JAFFREY NH     PTCLDY    21  17  84 CALM      30.09F FOG              
KEENE NH       PTCLDY    22  21  96 CALM      30.12S                  
BURLINGTON VT  MOCLDY    33  23  66 S13       30.00F WCI  24          
MT. WASHINGTON SNOW       7   7 100 SW24G35     N/A  VSB 1/16WCI -15  
$$

NYZ052-076-280600-
EASTERN NEW YORK
  
CITY           SKY/WX    TMP DP  RH WIND       PRES   REMARKS
ALBANY         MOCLDY    31  22  69 S5        30.08F WCI  26          
NEW YORK CITY  PTCLDY    37  16  42 SW8       30.17F WCI  31          
$$
 
ANZALL-280600-
MARINE OBSERVATIONS
  
STATION/POSITION TIME  TEMP    WIND        PRES    VSBY  WAVE
                       AIR SEA DIR/SP/G                  HT/PER
                 (UTC) (F)     (DEG/KT/KT) (MB)    (MI)  (FT/S)
BOSTON BUOY      0440      42                N/A           2/11
BUZZARDS BAY     0400   40     250/ 16/ 18 1022.6F
NANTUCKET SOUND  0450   40 42  270/  6/  6 1022.5F         1
MASS BAY-STELLWA 0304   39 42  170/ 10/ 12 1021.2R  1 7/8
ISLE OF SHOALS   0400   38     190/ 14/ 15 1021.0S
S OF BLOCK IS    0426      44                N/A           5/ 9
$$

......................KEY.........................
  SKY/WX - SKY CONDITION/PRESENT WEATHER
  TMP    - TEMPERATURE IN FAHRENHEIT
  DWPT   - DEWPOINT IN FAHRENHEIT
  RH     - RELATIVE HUMIDITY IN PERCENT
  WIND   - DIRECTION AND SPEED IN MPH
  PRES   - MEAN SEA LEVEL PRESSURE IN INCHES OF HG
  WCI    - WIND CHILL INDEX
  VSB    - VISIBILITY IN MILES
  HX     - HEAT INDEX
  TC     - TEMPERATURE IN CELSIUS
  VRB    - VARIABLE WIND DIRECTION
  N/A    - NOT AVAILABLE
  
      

Other recent Regional Weather Roundups

Sat Jan 28, 8:10pm EST

Sat Jan 28, 7:10pm EST

Sat Jan 28, 6:10pm EST

Sat Jan 28, 5:10pm EST

Sat Jan 28, 4:10pm EST

Sat Jan 28, 3:10pm EST

Sat Jan 28, 2:10pm EST

Sat Jan 28, 1:10pm EST

Sat Jan 28, 12:10pm EST

Sat Jan 28, 11:10am EST

Sat Jan 28, 10:10am EST

Sat Jan 28, 9:10am EST

Sat Jan 28, 8:10am EST

Sat Jan 28, 7:10am EST

Sat Jan 28, 6:10am EST

Sat Jan 28, 5:10am EST

Sat Jan 28, 4:10am EST

Sat Jan 28, 3:10am EST

Sat Jan 28, 2:10am EST

Sat Jan 28, 1:10am EST

Fri Jan 27, 11:10pm EST

Fri Jan 27, 10:10pm EST

Fri Jan 27, 9:10pm EST

Fri Jan 27, 8:10pm EST

Fri Jan 27, 7:10pm EST

Fri Jan 27, 6:10pm EST

Fri Jan 27, 5:10pm EST

Fri Jan 27, 4:10pm EST

Fri Jan 27, 3:10pm EST

Fri Jan 27, 2:10pm EST

Fri Jan 27, 1:10pm EST

Fri Jan 27, 12:10pm EST

Fri Jan 27, 11:10am EST

Fri Jan 27, 10:10am EST

Fri Jan 27, 9:10am EST

Fri Jan 27, 8:10am EST

Fri Jan 27, 7:10am EST

Fri Jan 27, 6:10am EST

Fri Jan 27, 5:10am EST

Fri Jan 27, 4:10am EST

Fri Jan 27, 3:10am EST

Fri Jan 27, 2:10am EST

Fri Jan 27, 1:10am EST

Fri Jan 27, 12:10am EST

Thu Jan 26, 11:10pm EST

Thu Jan 26, 10:10pm EST

Thu Jan 26, 9:10pm EST

Thu Jan 26, 8:10pm EST

Thu Jan 26, 7:10pm EST

Thu Jan 26, 6:10pm EST

Thu Jan 26, 5:10pm EST

Thu Jan 26, 4:10pm EST

Thu Jan 26, 3:10pm EST

Thu Jan 26, 2:10pm EST

Thu Jan 26, 1:10pm EST

Thu Jan 26, 12:10pm EST

Thu Jan 26, 11:10am EST

Thu Jan 26, 10:10am EST

Thu Jan 26, 9:10am EST

Thu Jan 26, 8:10am EST

Thu Jan 26, 7:10am EST

Thu Jan 26, 6:10am EST

Thu Jan 26, 5:10am EST

Thu Jan 26, 4:10am EST

Thu Jan 26, 3:10am EST

Thu Jan 26, 2:10am EST

Thu Jan 26, 1:10am EST

Thu Jan 26, 12:10am EST

Wed Jan 25, 11:10pm EST

Wed Jan 25, 10:10pm EST

Wed Jan 25, 9:10pm EST

Wed Jan 25, 8:10pm EST

Wed Jan 25, 7:10pm EST

Wed Jan 25, 6:10pm EST

Wed Jan 25, 5:10pm EST

Wed Jan 25, 4:10pm EST

Wed Jan 25, 3:10pm EST

Wed Jan 25, 2:10pm EST

Wed Jan 25, 1:10pm EST

Wed Jan 25, 12:10pm EST

Wed Jan 25, 11:10am EST

Wed Jan 25, 10:10am EST

Wed Jan 25, 9:10am EST

Wed Jan 25, 8:10am EST

Wed Jan 25, 7:10am EST

Wed Jan 25, 6:10am EST

Wed Jan 25, 5:10am EST

Wed Jan 25, 4:10am EST

Wed Jan 25, 3:10am EST

Wed Jan 25, 2:10am EST

Wed Jan 25, 1:10am EST

Wed Jan 25, 12:10am EST

Tue Jan 24, 11:10pm EST

Tue Jan 24, 10:10pm EST

Tue Jan 24, 9:10pm EST

Tue Jan 24, 8:10pm EST

Tue Jan 24, 7:10pm EST

Tue Jan 24, 6:10pm EST

Tue Jan 24, 5:10pm EST

Tue Jan 24, 4:10pm EST

Tue Jan 24, 3:10pm EST

Tue Jan 24, 2:10pm EST

Tue Jan 24, 1:10pm EST

Tue Jan 24, 12:10pm EST

Tue Jan 24, 11:10am EST

Tue Jan 24, 10:10am EST

Tue Jan 24, 9:10am EST

Tue Jan 24, 8:10am EST

Tue Jan 24, 7:10am EST

Tue Jan 24, 6:10am EST

Tue Jan 24, 5:10am EST

Tue Jan 24, 4:10am EST

Tue Jan 24, 3:10am EST

Tue Jan 24, 2:10am EST

Tue Jan 24, 1:10am EST

Tue Jan 24, 12:10am EST

Mon Jan 23, 11:10pm EST

Mon Jan 23, 10:10pm EST

Mon Jan 23, 9:10pm EST

Mon Jan 23, 8:10pm EST

Mon Jan 23, 7:10pm EST

Mon Jan 23, 6:10pm EST

Mon Jan 23, 5:10pm EST

Mon Jan 23, 4:10pm EST

Mon Jan 23, 3:10pm EST

Mon Jan 23, 2:10pm EST

Mon Jan 23, 1:10pm EST

Mon Jan 23, 12:10pm EST

Mon Jan 23, 11:10am EST

Mon Jan 23, 10:10am EST

Mon Jan 23, 9:10am EST

Mon Jan 23, 8:10am EST

Mon Jan 23, 7:10am EST

Mon Jan 23, 6:10am EST

Mon Jan 23, 5:10am EST

Mon Jan 23, 4:10am EST

Mon Jan 23, 3:10am EST

Mon Jan 23, 2:10am EST

Mon Jan 23, 1:10am EST

Mon Jan 23, 12:10am EST

Sun Jan 22, 11:10pm EST

Sun Jan 22, 10:10pm EST

Sun Jan 22, 9:10pm EST

Sun Jan 22, 8:10pm EST

Sun Jan 22, 7:10pm EST

Sun Jan 22, 6:10pm EST

Sun Jan 22, 5:10pm EST

Sun Jan 22, 4:10pm EST

Sun Jan 22, 3:10pm EST

Sun Jan 22, 2:10pm EST

Sun Jan 22, 1:10pm EST

Sun Jan 22, 12:10pm EST

Sun Jan 22, 11:10am EST

Sun Jan 22, 10:10am EST

Sun Jan 22, 9:10am EST

Sun Jan 22, 8:10am EST

Sun Jan 22, 7:10am EST

Sun Jan 22, 6:10am EST

Sun Jan 22, 5:10am EST

Sun Jan 22, 4:10am EST

Sun Jan 22, 3:10am EST

Sun Jan 22, 2:10am EST

Sun Jan 22, 1:10am EST

Sun Jan 22, 12:10am EST

Sat Jan 21, 11:10pm EST

Sat Jan 21, 10:10pm EST

Sat Jan 21, 9:10pm EST